Weather History for Victoria, BC

Change the Weather History Date:

Thursday, November 1, 2012

  Actual Average Record
Temperature  
Mean Temperature 53 °F -  
Max Temperature 58 °F 49 °F 59 °F (2008)
Min Temperature 48 °F 36 °F 28 °F (2002)
Degree Days  
Heating Degree Days 12    
Growing Degree Days 3 (Base 50)    
Moisture  
Dew Point 50 °F    
Average Humidity 93    
Maximum Humidity 100    
Minimum Humidity 77    
Precipitation  
Precipitation 0.02 in 0.18 in - ()
Sea Level Pressure  
Sea Level Pressure 29.83 in    
Wind  
Wind Speed 2 mph ()    
Max Wind Speed 6 mph    
Max Gust Speed -    
Visibility 7.0 miles    
Events Fog , Rain    
Averages and records for this station are not official NWS values.
T = Trace of Precipitation, MM = Missing Value Source: Averaged Metar Reports

Daily Weather History Graph

Daily Weather History Graph

Search for Another Location

Airport:

Trip Planner

Search our weather history database for the weather conditions in past years. The results will help you decide how hot, cold, wet, or windy it might be!

Date:

Astronomy

Nov. 01, 2012 Rise Set
Actual Time 8:01 AM PDT 5:52 PM PDT
Civil Twilight 7:28 AM PDT 6:25 PM PDT
Nautical Twilight 6:50 AM PDT 7:02 PM PDT
Astronomical Twilight 6:14 AM PDT 7:39 PM PDT
Moon 7:43 PM PDT (11/1) 10:49 AM PDT (11/1)
Length of Visible Light 10h 57m
Length of Day
9h 51m
Waning Gibbous, 92% of the Moon is Illuminated
Nov 1
Waning Gibbous
Nov 6
Last Quarter
Nov 13
New
Nov 20
First Quarter
Nov 28
Full

Hourly Weather History & Observations

Time (PDT) Temp. Dew Point Humidity Pressure Visibility Wind Dir Wind Speed Gust Speed Precip Events Conditions
12:00 AM 51.8 °F 50.0 °F 94% 29.70 in 0.4 mi Calm Calm - N/A Fog Fog
12:11 AM 51.8 °F - N/A% - 0.4 mi Calm Calm - N/A Fog , Rain Light Rain
1:00 AM 50.0 °F 50.0 °F 100% 29.70 in 0.4 mi Calm Calm - N/A Fog Fog
1:09 AM 50.0 °F - N/A% - 1.0 mi West 2.3 mph - N/A   Overcast
1:19 AM 50.0 °F - N/A% - 1.5 mi Calm Calm - N/A   Mostly Cloudy
1:44 AM 50.0 °F - N/A% - 1.5 mi WSW 2.3 mph - N/A   Overcast
2:00 AM 50.0 °F 50.0 °F 100% 29.71 in 1.0 mi WNW 4.6 mph - N/A   Overcast
2:40 AM 50.0 °F - N/A% - 1.0 mi WNW 2.3 mph - N/A   Overcast
3:00 AM 50.0 °F 50.0 °F 100% 29.72 in 1.0 mi SSW 3.5 mph - N/A   Overcast
3:15 AM 50.0 °F - N/A% - 0.8 mi WSW 4.6 mph - N/A   Overcast
3:31 AM 51.8 °F - N/A% - 1.5 mi WNW 3.5 mph - N/A Rain Light Rain
4:00 AM 50.0 °F 50.0 °F 100% 29.72 in 1.5 mi West 4.6 mph - N/A Rain Light Rain
4:35 AM 50.0 °F - N/A% - 2.0 mi WNW 4.6 mph - N/A Rain Light Rain
5:00 AM 51 °F 50 °F 93% 29.73 in 2 mi WNW 4.6 mph - - Rain Light Rain
5:00 AM 50.0 °F 50.0 °F 100% 29.73 in 2.0 mi WNW 4.6 mph - N/A Rain Light Rain
5:27 AM 50.0 °F - N/A% - 4.0 mi Calm Calm - N/A Rain Light Rain
6:00 AM 50.0 °F 50.0 °F 100% 29.74 in 4.0 mi West 3.5 mph - N/A Rain Light Rain
6:18 AM 50.0 °F - N/A% - 4.0 mi WSW 2.3 mph - N/A Rain Light Rain
7:00 AM 50.0 °F 50.0 °F 100% 29.75 in 4.0 mi West 3.5 mph - N/A Rain Light Rain
8:00 AM 50.0 °F 50.0 °F 100% 29.77 in 3.0 mi West 2.3 mph - N/A Rain Light Rain
8:09 AM 50.0 °F - N/A% - 2.5 mi Calm Calm - N/A Rain Light Rain
8:30 AM 50.0 °F - N/A% - 1.5 mi WNW 3.5 mph - N/A   Light Drizzle
9:00 AM 51.8 °F 50.0 °F 94% 29.79 in 1.5 mi Calm Calm - N/A   Light Drizzle
9:36 AM 51.8 °F - N/A% - 3.0 mi North 2.3 mph - N/A   Light Drizzle
9:49 AM 51.8 °F - N/A% - 6.0 mi NE 3.5 mph - N/A   Light Drizzle
10:00 AM 51.8 °F 50.0 °F 94% 29.80 in 10.0 mi ENE 4.6 mph - N/A   Overcast
10:20 AM 51.8 °F - N/A% - 15.0 mi East 5.8 mph - N/A   Overcast
11:00 AM 52 °F 50 °F 90% 29.82 in 15 mi ENE 3.5 mph - -   Partly Cloudy
11:00 AM 51.8 °F 50.0 °F 94% 29.82 in 15.0 mi ENE 3.5 mph - N/A   Overcast
12:00 PM 53.6 °F 50.0 °F 88% 29.84 in 10.0 mi North 2.3 mph - N/A   Overcast
1:00 PM 53.6 °F 51.8 °F 94% 29.86 in 10.0 mi NW 2.3 mph - N/A   Overcast
1:15 PM 53.6 °F - N/A% - 10.0 mi WSW 2.3 mph - N/A   Mostly Cloudy
2:00 PM 57.2 °F 53.6 °F 88% 29.87 in 15.0 mi WNW 5.8 mph - N/A   Mostly Cloudy
3:00 PM 55.4 °F 51.8 °F 88% 29.88 in 20.0 mi ENE 4.6 mph - N/A   Mostly Cloudy
4:00 PM 55.4 °F 50.0 °F 82% 29.90 in 20.0 mi ESE 4.6 mph - N/A   Mostly Cloudy
5:00 PM 56 °F 51 °F 77% 29.90 in 19 mi East 2.3 mph - -   Scattered Clouds
5:00 PM 55.4 °F 50.0 °F 82% 29.90 in 20.0 mi East 2.3 mph - N/A   Mostly Cloudy
6:00 PM 53.6 °F 50.0 °F 88% 29.91 in 30.0 mi East 3.5 mph - N/A   Mostly Cloudy
7:00 PM 51.8 °F 50.0 °F 94% 29.93 in 30.0 mi Calm Calm - N/A   Mostly Cloudy
7:04 PM 51.8 °F - N/A% - 30.0 mi East 2.3 mph - N/A Rain Light Rain
8:00 PM 51.8 °F 50.0 °F 94% 29.95 in 20.0 mi East 3.5 mph - N/A   Mostly Cloudy
9:00 PM 51.8 °F 50.0 °F 94% 29.96 in 15.0 mi ESE 3.5 mph - N/A Rain Light Rain
9:19 PM 51.8 °F - N/A% - 12.0 mi East 3.5 mph - N/A   Overcast
10:00 PM 51.8 °F 50.0 °F 94% 29.97 in 10.0 mi East 4.6 mph - N/A   Overcast
10:51 PM 51.8 °F - N/A% - 8.0 mi East 4.6 mph - N/A Rain Light Rain
11:00 PM 51 °F 50 °F 93% 29.99 in 7 mi East 3.5 mph - - Rain Light Rain
11:00 PM 51.8 °F 50.0 °F 94% 29.99 in 8.0 mi East 3.5 mph - N/A Rain Light Rain
11:11 PM 51.8 °F - N/A% - 5.0 mi East 4.6 mph - N/A   Mostly Cloudy
11:26 PM 51.8 °F - N/A% - 6.0 mi ESE 2.3 mph - N/A   Mostly Cloudy